BRITE-PL 2 (40119 NORAD) Tracking and Keplerian Element Data

This shows tracking and keplerian element data for the satellite.

Feedback or suggestion? Click here.




ElementValue
Catalog40119
NameBRITE-PL 2
Epoch Orbit21249
Epoch Day203.19547419
Epoch Year2018
RAAN291.5405
Inclination97.9182
Eccentricity0.0016568
Argument of Perigee219.9309
Mean Anonmoly140.0688
Mean Motion14.84305717
Decay Rate5.3E-07
L11 40119U 14049B 18203.19547419 .00000053 00000-0 12878-4 0 9995
L22 40119 97.9182 291.5405 0016568 219.9309 140.0688 14.84305717212493

Live tracking and technical data element details for BRITE-PL 2 (NORAD 40119). BRITE-PL 2 can be tracked NOW for your location showing map with azimuth and elevation plus other details from your city location.

Track the satellite on the map from your city or location and see movement details for azimuth, elevation, latitude, longitude, range, height, and movement on the map or in text.







IsCatalogInMostPopularTable: catalog: 40119, numindb: 56
Update: records affected: 1



GetName: 40119 BRITE-PL 2

Hit Count: updated at: Mon, 23 Jul 2018 07:46:12 GMT